Clarksburg, WV

6:21 PM EDT on April 23, 2017 (GMT -0400)
Benedum

Weather History for KCKB - March, 2014

Change the Weather History Date:

Tuesday, March 25, 2014

  Actual Average Record
Temperature  
Mean Temperature 30 °F 45 °F  
Max Temperature 35 °F 56 °F 84 °F (1929)
Min Temperature 25 °F 34 °F 12 °F (1940)
Degree Days  
Heating Degree Days 36 20  
Month to date heating degree days 608  
Since 1 July heating degree days 4569  
Cooling Degree Days 0 0  
Month to date cooling degree days 0  
Year to date cooling degree days 0  
Moisture  
Dew Point 21 °F    
Average Humidity 73    
Maximum Humidity 88    
Minimum Humidity 43    
Precipitation  
Precipitation 0.00 in 0.14 in 0.91 in (1988)
Month to date precipitation 3.12  
Year to date precipitation 9.71  
Sea Level Pressure  
Sea Level Pressure 29.96 in    
Wind  
Wind Speed 4 mph (NW)    
Max Wind Speed 17 mph    
Max Gust Speed 29 mph    
Visibility 6 miles    
Events Snow    
T = Trace of Precipitation, MM = Missing Value Source: NWS Daily Summary

Daily Weather History Graph

Daily Weather History Graph

Search for Another Location

Airport or City:

Trip Planner

Search our weather history database for the weather conditions in past years. The results will help you decide how hot, cold, wet, or windy it might be!

Date:

Astronomy

Mar. 25, 2014 Rise Set
Actual Time 7:16 AM EDT 7:37 PM EDT
Civil Twilight 6:49 AM EDT 8:04 PM EDT
Nautical Twilight 6:18 AM EDT 8:36 PM EDT
Astronomical Twilight 5:46 AM EDT 9:08 PM EDT
Moon 3:35 AM EDT (3/25) 2:08 PM EDT (3/25)
Length of Visible Light 13h 15m
Length of Day
12h 21m
Waning Crescent, 32% of the Moon is Illuminated
Mar 25
Waning Crescent
Mar 30
New
Apr 7
First Quarter
Apr 15
Full
Apr 22
Last Quarter

Hourly Weather History & Observations

Time (EDT) Temp. Windchill Dew Point Humidity Pressure Visibility Wind Dir Wind Speed Gust Speed Precip Events Conditions
12:53 AM 28.0 °F - 10.0 °F 47% 30.09 in 10.0 mi Calm Calm - N/A   Partly Cloudy
1:53 AM 28.9 °F - 9.0 °F 43% 30.07 in 10.0 mi Calm Calm - N/A   Mostly Cloudy
2:53 AM 28.0 °F - 14.0 °F 56% 30.06 in 10.0 mi Calm Calm - N/A   Overcast
3:53 AM 28.0 °F 22.8 °F 12.0 °F 51% 30.04 in 10.0 mi SSW 4.6 mph - N/A   Overcast
4:53 AM 28.0 °F - 15.1 °F 58% 30.03 in 7.0 mi Calm Calm - 0.00 in Snow Light Snow
5:24 AM 26.1 °F 20.5 °F 19.9 °F 78% 30.00 in 2.5 mi South 4.6 mph - 0.00 in Snow Light Snow
5:40 AM 26.1 °F 20.5 °F 21.0 °F 81% 30.00 in 3.0 mi SSW 4.6 mph - 0.00 in Snow Light Snow
5:53 AM 25.0 °F 20.7 °F 21.0 °F 85% 30.02 in 2.5 mi South 3.5 mph - 0.00 in Snow Light Snow
6:53 AM 25.0 °F - 21.0 °F 85% 30.01 in 2.5 mi Calm Calm - 0.00 in Snow Light Snow
7:32 AM 25.0 °F - 21.9 °F 88% 29.97 in 4.0 mi Calm Calm - 0.00 in   Overcast
7:53 AM 26.1 °F - 21.0 °F 81% 30.00 in 4.0 mi Calm Calm - 0.00 in   Haze
8:43 AM 26.1 °F 21.9 °F 21.0 °F 81% 29.98 in 2.5 mi East 3.5 mph - 0.00 in Snow Light Snow
8:53 AM 26.1 °F - 21.9 °F 84% 30.00 in 2.0 mi Calm Calm - 0.00 in Snow Light Snow
9:42 AM 27.0 °F 23.0 °F 21.9 °F 81% 29.96 in 1.8 mi ENE 3.5 mph - 0.00 in Snow Light Snow
9:53 AM 27.0 °F - 23.0 °F 85% 29.98 in 2.0 mi Calm Calm - 0.00 in Snow Light Snow
10:06 AM 28.0 °F - 23.0 °F 81% 29.96 in 3.0 mi Calm Calm - 0.00 in Snow Light Snow
10:17 AM 28.0 °F - 21.9 °F 78% 29.96 in 3.0 mi Calm Calm - 0.00 in Snow Light Snow
10:29 AM 28.9 °F 25.2 °F 23.0 °F 78% 29.95 in 3.0 mi Variable 3.5 mph - 0.00 in Snow Light Snow
10:53 AM 28.9 °F 23.9 °F 24.1 °F 82% 29.97 in 3.0 mi NE 4.6 mph - 0.00 in Snow Light Snow
11:13 AM 28.9 °F - 23.0 °F 78% 29.95 in 8.0 mi Calm Calm - 0.00 in   Overcast
11:22 AM 30.0 °F 26.5 °F 24.1 °F 79% 29.94 in 10.0 mi North 3.5 mph - 0.00 in   Overcast
11:31 AM 30.0 °F 26.5 °F 23.0 °F 75% 29.94 in 10.0 mi ENE 3.5 mph - 0.00 in   Overcast
11:42 AM 30.9 °F - 21.9 °F 69% 29.94 in 9.0 mi Calm Calm - 0.00 in   Overcast
11:53 AM 30.0 °F - 21.9 °F 72% 29.96 in 10.0 mi Calm Calm - 0.00 in   Overcast
12:53 PM 30.9 °F 26.2 °F 23.0 °F 72% 29.94 in 5.0 mi ESE 4.6 mph - N/A   Overcast
1:09 PM 32.0 °F 28.7 °F 23.0 °F 69% 29.91 in 6.0 mi West 3.5 mph - 0.00 in   Overcast
1:20 PM 30.9 °F - 23.0 °F 72% 29.91 in 2.5 mi Calm Calm - 0.00 in Snow Light Snow
1:32 PM 32.0 °F - 23.0 °F 69% 29.91 in 3.0 mi Calm Calm - 0.00 in Snow Light Snow
1:41 PM 32.0 °F 27.5 °F 23.0 °F 69% 29.90 in 5.0 mi WNW 4.6 mph - 0.00 in   Overcast
1:53 PM 33.1 °F 30.0 °F 24.1 °F 70% 29.92 in 5.0 mi North 3.5 mph - 0.00 in   Overcast
2:01 PM 33.1 °F 27.7 °F 24.1 °F 70% 29.90 in 7.0 mi WNW 5.8 mph - N/A   Overcast
2:45 PM 33.1 °F 30.0 °F 23.0 °F 66% 29.88 in 2.5 mi Variable 3.5 mph - 0.00 in Snow Light Snow
2:53 PM 34.0 °F 28.8 °F 19.9 °F 56% 29.89 in 9.0 mi NE 5.8 mph - 0.00 in   Overcast
3:53 PM 34.0 °F 29.8 °F 21.0 °F 59% 29.89 in 9.0 mi WNW 4.6 mph - N/A   Overcast
4:04 PM 33.1 °F 24.4 °F 23.0 °F 66% 29.87 in 1.8 mi NW 11.5 mph - 0.00 in Snow Light Snow
4:06 PM 32.0 °F 23.0 °F 24.1 °F 73% 29.87 in 2.5 mi NW 11.5 mph - 0.00 in Snow Light Snow
4:25 PM 33.1 °F 30.0 °F 25.0 °F 72% 29.87 in 2.5 mi NNW 3.5 mph - 0.00 in Snow Light Snow
4:53 PM 33.1 °F 27.7 °F 24.1 °F 70% 29.89 in 2.5 mi NW 5.8 mph - 0.00 in Snow Light Snow
5:08 PM 30.9 °F 23.5 °F 26.1 °F 82% 29.88 in 1.0 mi NW 8.1 mph - 0.00 in Snow Light Snow
5:17 PM 32.0 °F 25.6 °F 26.1 °F 79% 29.88 in 3.0 mi WNW 6.9 mph - 0.00 in Snow Light Snow
5:30 PM 33.1 °F - 25.0 °F 72% 29.87 in 10.0 mi North - - 0.00 in   Scattered Clouds
5:53 PM 34.0 °F 26.6 °F 25.0 °F 70% 29.90 in 10.0 mi WSW 9.2 mph - 0.00 in   Clear
6:53 PM 33.1 °F 24.9 °F 21.0 °F 61% 29.91 in 10.0 mi WNW 10.4 mph - N/A   Clear
7:53 PM 30.9 °F 27.5 °F 19.9 °F 64% 29.93 in 10.0 mi West 3.5 mph - N/A   Clear
8:53 PM 30.0 °F 19.1 °F 23.0 °F 75% 29.95 in 9.0 mi WNW 15.0 mph 20.7 mph 0.00 in Snow Light Snow
9:05 PM 30.0 °F 18.3 °F 24.1 °F 79% 29.94 in 1.8 mi WNW 17.3 mph - 0.00 in Snow Light Snow
9:12 PM 28.9 °F 19.2 °F 25.0 °F 85% 29.94 in 1.2 mi WNW 11.5 mph 23.0 mph 0.00 in Snow Light Snow
9:17 PM 28.9 °F 19.2 °F 25.0 °F 85% 29.94 in 3.0 mi WNW 11.5 mph 20.7 mph 0.00 in Snow Light Snow
9:48 PM 28.4 °F 18.0 °F 23.0 °F 80% 29.96 in 3.0 mi NW 12.7 mph 28.8 mph 0.00 in Snow Light Snow
9:53 PM 28.0 °F 18.6 °F 23.0 °F 81% 30.00 in 2.5 mi NW 10.4 mph - 0.00 in Snow Light Snow
10:13 PM 27.0 °F 14.7 °F 21.0 °F 78% 29.98 in 5.0 mi NW 16.1 mph 21.9 mph 0.00 in Snow Light Snow
10:20 PM 27.0 °F 16.1 °F 19.9 °F 75% 29.99 in 9.0 mi NW 12.7 mph 21.9 mph 0.00 in   Mostly Cloudy
10:50 PM 26.6 °F 17.5 °F 19.4 °F 74% 30.00 in 10.0 mi NNW 9.2 mph - 0.00 in   Overcast
10:53 PM 27.0 °F 15.2 °F 18.0 °F 69% 30.03 in 10.0 mi NNW 15.0 mph 21.9 mph 0.00 in   Overcast
11:07 PM 27.0 °F 16.1 °F 18.0 °F 69% 30.00 in 10.0 mi NNW 12.7 mph 18.4 mph N/A   Overcast
11:16 PM 27.0 °F 18.0 °F 17.1 °F 66% 30.01 in 10.0 mi NNW 9.2 mph 23.0 mph N/A   Overcast
11:53 PM 26.1 °F 14.0 °F 16.0 °F 66% 30.04 in 9.0 mi NNW 15.0 mph 25.3 mph 0.00 in   Overcast